Regional Weather Roundup
Issued by NWS

Home | Current Version | Previous Version | Graphics & Text | Print | Product List | Glossary On
Versions: 1 2 3 4 5 6 7 8 9 10 11 12 13 14 15 16 17 18 19 20 21 22 23 24 25 26 27 28 29 30 31 32 33 34 35 36 37 38 39 40 41 42 43 44 45 46 47 48 49 50
000
ASUS43 KDTX 190710
RWRMI
MICHIGAN HOURLY REGIONAL WEATHER ROUNDUP
NATIONAL WEATHER SERVICE DETROIT/PONTIAC MI
200 AM EST MON FEB 19 2018

NOTE: "FAIR" INDICATES FEW OR NO CLOUDS BELOW 12,000 FEET WITH NO
SIGNIFICANT WEATHER AND/OR OBSTRUCTION TO VISIBILITY.

MIZ047>049-052>055-059>063-066>070-074>076-081>083-190800-
SOUTHEAST LOWER MICHIGAN

CITY           SKY/WX    TMP DP  RH WIND       PRES   REMARKS
ADRIAN         FAIR      30  27  88 SE3       30.04F
ALMA           FAIR      33  29  86 S7        29.97F WCI  27
ANN ARBOR      FAIR      31  27  85 SE6       30.03F WCI  25
BAD AXE        FAIR      32  26  80 S17G25    30.03F WCI  20
CARO           FAIR      32  27  81 SE10      30.00F WCI  24
DETROIT CITY   FAIR      32  26  78 S3        30.08S
DETROIT        CLOUDY    33  27  78 SE6       30.06F WCI  28
FLINT          FAIR      35  28  75 S14       30.00F WCI  26
GROSSE ILE     FAIR      32  28  86 SE10      30.06F WCI  24
HILLSDALE      CLOUDY    32  30  93 SE10      29.97F WCI  24
HOWELL         FAIR      33  29  86 S12G20    30.00F WCI  25

CITY           SKY/WX    TMP DP  RH WIND       PRES   REMARKS
JACKSON        FAIR      36  29  75 SE14G21   29.99F WCI  27
LAMBERTVILLE   FAIR      33  28  83 SE7       30.03F WCI  27
LANSING        FAIR      33  28  81 S12       29.97F WCI  24
LAPEER         FAIR      33  27  80 S7        30.04F WCI  26
MASON          FAIR      35  27  74 S12       29.98F WCI  26
MONROE         FAIR      32  28  84 E5        30.04F WCI  27
MT. CLEMENS    CLOUDY    29  29  99 SE5       30.06S WCI  24
PONTIAC        FAIR      33  27  78 S10       30.02F WCI  25
PORT HOPE        N/A     33  25  72 S9G22     30.01F WCI  25
PORT HURON     FAIR      32  25  74 S6        30.09R WCI  26
TRI CITIES     FAIR      34  27  75 S12       29.99F WCI  25
MIDLAND        FAIR      34  28  79 S5        29.98F WCI  29
TROY           FAIR      34  28  80 SE3       30.07F
SAGINAW HB     FAIR      34  28  80 S10       29.99F WCI  26
$$
MIZ043>046-050>051-056>058-064>065-071>073-077>080-190800-
SOUTHWEST LOWER MICHIGAN

CITY           SKY/WX    TMP DP  RH WIND       PRES   REMARKS
BATTLE CREEK   FAIR      36  29  75 S12       29.94F WCI  28
BENTON HARBOR  MOCLDY    40  30  67 S9        29.93R WCI  34
BIG RAPIDS     MOCLDY    31  26  83 MISG      29.93F
COLDWATER      FAIR      35  31  83 S9        29.97F WCI  28
FREMONT        CLOUDY    35  25  67 SE5       29.92F WCI  31
HOLLAND        FAIR      39  30  70 S12       29.92F WCI  32
GRAND RAPIDS   FAIR      37  30  75 S8        29.94S WCI  31
IONIA          FAIR      33  29  84 S9        29.94F WCI  25
KALAMAZOO      CLOUDY    38  30  73 S7        29.93F WCI  33
LUDINGTON      CLOUDY    39  31  72 S10G16    29.89F WCI  32
MARSHALL       FAIR      35  29  79 S8        29.96F WCI  29
MOUNT PLEASANT FAIR      33  27  79 CALM      29.97R
MUSKEGON       MOCLDY    38  28  67 SE8       29.91F WCI  32
SOUTH HAVEN    FAIR      41  31  66 S8        29.94R
$$
MIZ016>042-190800-
NORTHERN LOWER MICHIGAN

CITY           SKY/WX    TMP DP  RH WIND       PRES   REMARKS
ALPENA         FAIR      31  26  82 S9        29.98F WCI  23
BEAVER ISLAND  CLOUDY    36  23  60 S5        29.90F WCI  32
BELLAIRE       FAIR      28  26  89 CALM      29.93F
CADILLAC       FAIR      31  28  86 S7        29.91F WCI  25
CHARLEVOIX     CLOUDY    33  22  66 SE7       29.94F WCI  26
FRANKFORT      CLOUDY    35  27  71 SE7       29.89F WCI  29
GAYLORD        FAIR      29  26  89 S9        29.92F WCI  20
GRAYLING       FAIR      29  26  88 S6        29.93F WCI  23
HARBOR SPRINGS MOCLDY    33  22  64 CALM      29.93F
HOUGHTON LAKE  FAIR      29  25  85 S6        29.95F WCI  23
MANISTEE       CLOUDY    33  26  75 E6        29.89F WCI  28
OSCODA         FAIR      31  25  79 S8        30.01F WCI  24
PELLSTON       CLOUDY    35  22  58 S8        29.92F WCI  29
ROGERS CITY    FAIR      32  24  72 S5        29.98R WCI  27
TRAVERSE CITY  FAIR      33  25  72 CALM      29.90F
$$
MIZ007>008-015-190800-
EASTERN UPPER MICHIGAN

CITY           SKY/WX    TMP DP  RH WIND       PRES   REMARKS
KINROSS        CLOUDY    30  25  81 S6        29.92F WCI  24
MACKINAC ISLAN CLOUDY    35  19  51 S7        29.92F WCI  29
NEWBERRY       CLOUDY    33  32  95 SW15      29.87F WCI  23
S. S. MARIE    CLOUDY    33  25  72 SE7       29.93S WCI  27
MUNISING         N/A     34  29  82 S9        29.83S WCI  27
$$
MIZ004>006-011>014-085-190800-
CENTRAL UPPER MICHIGAN

CITY           SKY/WX    TMP DP  RH WIND       PRES   REMARKS
MANISTIQUE     CLOUDY    33  32  94 S8        29.87F WCI  27
ESCANABA       CLOUDY    32  29  88 S3        29.85S
MENOMINEE      CLOUDY    35  29  78 S5        29.84F WCI  31
SAWYER-GWINN   CLOUDY    30  24  80 S10       29.82R WCI  21
$$
MIZ001>003-009>011-084-190800-
WESTERN UPPER MICHIGAN

CITY           SKY/WX    TMP DP  RH WIND       PRES   REMARKS
IRON MOUNTAIN  CLOUDY    30  24  78 CALM      29.79S
HOUGHTON       CLOUDY    23  18  81 N16G25    29.81R WCI  10
COPPER HARBOR    N/A     24  21  88 NE18G26   29.86R WCI  10
IRONWOOD       FLURRIES  22  20  92 N9        29.84R WCI  12
$$

ABBREVIATIONS USED IN REMARKS
   TC - TEMPERATURE IN CELSIUS
  WCI - WIND CHILL INDEX
   HX - HEAT INDEX
  VSB - VISIBILITY





USA.gov is the U.S. government's official web portal to all federal, state and local government web resources and services.